Voltar ao catálogo

RADUGA 1-2

AtivoComunicaçõesGEO
NORAD 21038·PAYLOAD·🇷🇺 Russia

Lançado Dec 27, 1990 de Baikonur Cosmodrome

Loading…

TLE

AtualizadoSource: Space-Track

Época: Sep 13, 2026, 19:16 UTC

1 21038U 90116A   26256.80317485  .00000015  00000-0  00000-0 0  9994
2 21038  12.7995 337.3102 0004178 146.2181 219.8545  1.00223591 48235

Acompanhe RADUGA 1-2 em tempo real com AllMySat

Download on the App Store